Logan Peak - 24 Hour Table
Date & TimeSolar
Radiation
(W/m²)
Wind
Speed
(mph)
Wind
Direction
(degrees)
Air
Temperature
(°F)
Relative
Humidity
(%)
Barometeric
Pressure
(inHg)
2017/03/24 20:00 0 26.5 159 25.4 71 29.82
2017/03/24 19:00 10 25.6 165 23.4 84 29.83
2017/03/24 18:00 80 24.5 169 22.3 93 29.84
2017/03/24 17:00 272 20.4 162 25.0 97 29.85
2017/03/24 16:00 587 17.2 148 25.0 99 29.86
2017/03/24 15:00 721 11.7 139 26.5 99 29.86
2017/03/24 14:00 805 11.5 123 26.3 100 29.87
2017/03/24 13:00 835 10.0 124 24.6 100 29.89
2017/03/24 12:00 802 11.9 142 23.9 99 29.89
2017/03/24 11:00 716 8.2 122 22.6 100 29.89
2017/03/24 10:00 547 0.0 0 21.4 99 29.89
2017/03/24 09:00 318 0.0 0 21.5 98 29.89
2017/03/24 08:00 182 0.0 0 20.8 98 29.88
2017/03/24 07:00 24 0.0 0 19.0 99 29.87
2017/03/24 06:00 0 0.0 238 19.8 98 29.86
2017/03/24 05:00 0 3.8 246 18.9 99 29.85
2017/03/24 04:00 0 2.9 262 19.6 98 29.85
2017/03/24 03:00 0 3.7 274 19.7 99 29.83
2017/03/24 02:00 0 4.6 271 19.7 99 29.84
2017/03/24 01:00 0 3.6 278 21.7 99 29.83
2017/03/24 00:00 0 4.9 279 22.5 99 29.81
2017/03/23 23:00 0 4.9 286 22.5 100 29.80
2017/03/23 22:00 0 5.2 292 22.3 100 29.78
2017/03/23 21:00 0 5.1 293 22.4 100 29.77